Time,TemperatureF,DewpointF,PressureIn,WindDirection,WindDirectionDegrees,WindSpeedMPH,WindSpeedGustMPH,Humidity,HourlyPrecipIn,Conditions,Clouds,dailyrainin,SoftwareType,DateUTC
2013-02-02 00:03:00,27.0,8.0,-100.00,North,8,6.0,9.0,43,0.00,,,-99.99,,2013-02-02 05:03:00,
2013-02-02 00:12:00,27.0,9.0,-100.00,North,7,6.0,-999.0,47,0.00,,,-99.99,,2013-02-02 05:12:00,
2013-02-02 00:22:00,27.0,9.0,-100.00,North,7,6.0,-999.0,47,0.00,,,-99.99,,2013-02-02 05:22:00,
2013-02-02 00:33:00,26.0,6.0,-100.00,North,350,5.0,7.0,41,0.00,,,-99.99,,2013-02-02 05:33:00,
2013-02-02 00:42:00,26.0,6.0,-100.00,North,350,5.0,7.0,41,0.00,,,-99.99,,2013-02-02 05:42:00,
2013-02-02 00:52:00,26.0,7.0,-100.00,NNW,344,2.0,6.0,44,0.00,,,-99.99,,2013-02-02 05:52:00,
2013-02-02 01:02:00,25.0,7.0,-100.00,NW,325,4.0,6.0,45,0.00,,,-99.99,,2013-02-02 06:02:00,
2013-02-02 01:12:00,25.0,7.0,-100.00,NW,325,4.0,6.0,45,0.00,,,-99.99,,2013-02-02 06:12:00,
2013-02-02 01:22:00,25.0,7.0,-100.00,NW,325,4.0,6.0,45,0.00,,,-99.99,,2013-02-02 06:22:00,
2013-02-02 01:32:00,25.0,6.0,-100.00,North,8,4.0,7.0,43,0.00,,,-99.99,,2013-02-02 06:32:00,
2013-02-02 01:42:00,25.0,6.0,-100.00,North,8,4.0,7.0,43,0.00,,,-99.99,,2013-02-02 06:42:00,
2013-02-02 01:52:00,25.0,6.0,-100.00,North,8,4.0,7.0,43,0.00,,,-99.99,,2013-02-02 06:52:00,
2013-02-02 02:02:00,25.0,6.0,-100.00,NNW,344,4.0,5.0,43,0.00,,,-99.99,,2013-02-02 07:02:00,
2013-02-02 02:12:00,25.0,6.0,-100.00,NNW,344,4.0,5.0,43,0.00,,,-99.99,,2013-02-02 07:12:00,
2013-02-02 02:21:00,25.0,7.0,-100.00,North,360,4.0,5.0,46,0.00,,,-99.99,,2013-02-02 07:21:00,
2013-02-02 02:32:00,25.0,7.0,-100.00,North,360,4.0,5.0,46,0.00,,,-99.99,,2013-02-02 07:32:00,
2013-02-02 02:42:00,25.0,7.0,-100.00,North,360,4.0,5.0,46,0.00,,,-99.99,,2013-02-02 07:42:00,
2013-02-02 02:52:00,25.0,7.0,-100.00,North,10,5.0,8.0,47,0.00,,,-99.99,,2013-02-02 07:52:00,
2013-02-02 03:00:00,24.0,10.0,-100.00,North,357,3.0,5.0,53,0.00,,,-99.99,,2013-02-02 08:00:00,
2013-02-02 03:01:00,25.0,9.0,-100.00,ENE,58,2.0,4.0,52,0.00,,,-99.99,,2013-02-02 08:01:00,
2013-02-02 03:11:00,25.0,9.0,-100.00,ENE,58,2.0,4.0,52,0.00,,,-99.99,,2013-02-02 08:11:00,
2013-02-02 03:21:00,25.0,9.0,-100.00,ENE,58,2.0,4.0,52,0.00,,,-99.99,,2013-02-02 08:21:00,
2013-02-02 03:32:00,24.0,10.0,-100.00,North,357,3.0,5.0,53,0.00,,,-99.99,,2013-02-02 08:32:00,
2013-02-02 03:40:00,24.0,7.0,-100.00,North,11,4.0,7.0,47,0.00,,,-99.99,,2013-02-02 08:40:00,
2013-02-02 03:41:00,24.0,10.0,-100.00,North,357,3.0,5.0,53,0.00,,,-99.99,,2013-02-02 08:41:00,
2013-02-02 03:53:00,24.0,10.0,-100.00,North,357,3.0,5.0,53,0.00,,,-99.99,,2013-02-02 08:53:00,
2013-02-02 04:11:00,24.0,7.0,-100.00,North,11,4.0,7.0,47,0.00,,,-99.99,,2013-02-02 09:11:00,
2013-02-02 04:22:00,24.0,7.0,-100.00,North,11,4.0,7.0,47,0.00,,,-99.99,,2013-02-02 09:22:00,
2013-02-02 04:32:00,24.0,7.0,-100.00,North,11,4.0,7.0,47,0.00,,,-99.99,,2013-02-02 09:32:00,
2013-02-02 04:52:00,24.0,9.0,-100.00,NE,51,3.0,4.0,52,0.00,,,-99.99,,2013-02-02 09:52:00,
2013-02-02 05:02:00,24.0,9.0,-100.00,NE,51,3.0,4.0,52,0.00,,,-99.99,,2013-02-02 10:02:00,
2013-02-02 05:11:00,24.0,10.0,-100.00,ENE,71,2.0,3.0,56,0.00,,,-99.99,,2013-02-02 10:11:00,
2013-02-02 05:21:00,24.0,10.0,-100.00,ENE,71,2.0,3.0,56,0.00,,,-99.99,,2013-02-02 10:21:00,
2013-02-02 05:32:00,23.0,9.0,-100.00,ESE,107,2.0,3.0,55,0.00,,,-99.99,,2013-02-02 10:32:00,
2013-02-02 05:42:00,23.0,9.0,-100.00,ESE,107,2.0,3.0,55,0.00,,,-99.99,,2013-02-02 10:42:00,
2013-02-02 05:52:00,23.0,9.0,-100.00,SSE,164,0.0,0.0,54,0.00,,,-99.99,,2013-02-02 10:52:00,
2013-02-02 06:02:00,23.0,9.0,-100.00,SSE,164,0.0,0.0,54,0.00,,,-99.99,,2013-02-02 11:02:00,
2013-02-02 06:11:00,23.0,9.0,-100.00,SSE,148,0.0,0.0,56,0.00,,,-99.99,,2013-02-02 11:11:00,
2013-02-02 06:22:00,23.0,9.0,-100.00,SSE,148,0.0,0.0,56,0.00,,,-99.99,,2013-02-02 11:22:00,
2013-02-02 06:32:00,22.0,9.0,-100.00,SW,233,1.0,1.0,57,0.00,,,-99.99,,2013-02-02 11:32:00,
2013-02-02 06:42:00,22.0,9.0,-100.00,SW,233,1.0,1.0,57,0.00,,,-99.99,,2013-02-02 11:42:00,
2013-02-02 06:52:00,21.0,11.0,-100.00,West,260,2.0,2.0,66,0.00,,,-99.99,,2013-02-02 11:52:00,
2013-02-02 07:02:00,21.0,11.0,-100.00,West,260,2.0,2.0,66,0.00,,,-99.99,,2013-02-02 12:02:00,
2013-02-02 07:11:00,20.0,12.0,-100.00,WSW,256,1.0,2.0,69,0.00,,,-99.99,,2013-02-02 12:11:00,
2013-02-02 07:22:00,20.0,12.0,-100.00,WSW,256,1.0,2.0,69,0.00,,,-99.99,,2013-02-02 12:22:00,
2013-02-02 07:32:00,20.0,12.0,-100.00,SW,233,2.0,2.0,72,0.00,,,-99.99,,2013-02-02 12:32:00,
2013-02-02 07:42:00,20.0,12.0,-100.00,SW,233,2.0,2.0,72,0.00,,,-99.99,,2013-02-02 12:42:00,
2013-02-02 07:53:00,19.0,13.0,-100.00,SW,229,0.0,1.0,74,0.00,,,-99.99,,2013-02-02 12:53:00,
2013-02-02 08:03:00,19.0,13.0,-100.00,SW,229,0.0,1.0,74,0.00,,,-99.99,,2013-02-02 13:03:00,
2013-02-02 08:11:00,20.0,13.0,-100.00,West,260,2.0,3.0,77,0.00,,,-99.99,,2013-02-02 13:11:00,
2013-02-02 08:22:00,20.0,13.0,-100.00,West,260,2.0,3.0,77,0.00,,,-99.99,,2013-02-02 13:22:00,
2013-02-02 08:33:00,21.0,14.0,-100.00,West,263,2.0,2.0,76,0.00,,,-99.99,,2013-02-02 13:33:00,
2013-02-02 08:40:00,24.0,12.0,-100.00,SW,229,3.0,4.0,60,0.00,,,-99.99,,2013-02-02 13:40:00,
2013-02-02 08:42:00,21.0,14.0,-100.00,West,263,2.0,2.0,76,0.00,,,-99.99,,2013-02-02 13:42:00,
2013-02-02 08:52:00,22.0,14.0,-100.00,WSW,254,2.0,3.0,70,0.00,,,-99.99,,2013-02-02 13:52:00,
2013-02-02 09:03:00,22.0,14.0,-100.00,WSW,254,2.0,3.0,70,0.00,,,-99.99,,2013-02-02 14:03:00,
2013-02-02 09:12:00,24.0,12.0,-100.00,SW,229,3.0,4.0,60,0.00,,,-99.99,,2013-02-02 14:12:00,
2013-02-02 09:22:00,24.0,12.0,-100.00,SW,229,3.0,4.0,60,0.00,,,-99.99,,2013-02-02 14:22:00,
2013-02-02 09:33:00,24.0,12.0,-100.00,SW,229,3.0,4.0,60,0.00,,,-99.99,,2013-02-02 14:33:00,
2013-02-02 09:52:00,26.0,10.0,-100.00,South,175,0.0,2.0,50,0.00,,,-99.99,,2013-02-02 14:52:00,
2013-02-02 10:03:00,26.0,10.0,-100.00,South,175,0.0,2.0,50,0.00,,,-99.99,,2013-02-02 15:03:00,
2013-02-02 10:12:00,27.0,9.0,-100.00,South,189,1.0,2.0,46,0.00,,,-99.99,,2013-02-02 15:12:00,
2013-02-02 10:22:00,27.0,9.0,-100.00,South,189,1.0,2.0,46,0.00,,,-99.99,,2013-02-02 15:22:00,
2013-02-02 10:33:00,28.0,7.0,-100.00,WSW,247,5.0,7.0,41,0.00,,,-99.99,,2013-02-02 15:33:00,
2013-02-02 10:42:00,28.0,7.0,-100.00,WSW,247,5.0,7.0,41,0.00,,,-99.99,,2013-02-02 15:42:00,
2013-02-02 10:52:00,30.0,8.0,-100.00,SW,215,2.0,5.0,39,0.00,,,-99.99,,2013-02-02 15:52:00,
2013-02-02 11:03:00,30.0,8.0,-100.00,SW,215,2.0,5.0,39,0.00,,,-99.99,,2013-02-02 16:03:00,
2013-02-02 11:12:00,31.0,8.0,-100.00,SW,233,3.0,5.0,37,0.00,,,-99.99,,2013-02-02 16:12:00,
2013-02-02 11:23:00,31.0,8.0,-100.00,SW,233,3.0,5.0,37,0.00,,,-99.99,,2013-02-02 16:23:00,
2013-02-02 11:32:00,32.0,10.0,-100.00,SW,230,4.0,6.0,40,0.00,,,-99.99,,2013-02-02 16:32:00,
2013-02-02 11:42:00,32.0,10.0,-100.00,SW,230,4.0,6.0,40,0.00,,,-99.99,,2013-02-02 16:42:00,
2013-02-02 11:52:00,32.0,9.0,-100.00,SSW,202,2.0,4.0,38,0.00,,,-99.99,,2013-02-02 16:52:00,
2013-02-02 12:03:00,32.0,9.0,-100.00,SSW,202,2.0,4.0,38,0.00,,,-99.99,,2013-02-02 17:03:00,
2013-02-02 12:11:00,34.0,8.0,-100.00,WSW,248,2.0,4.0,33,0.00,,,-99.99,,2013-02-02 17:11:00,
2013-02-02 12:23:00,34.0,8.0,-100.00,WSW,248,2.0,4.0,33,0.00,,,-99.99,,2013-02-02 17:23:00,
2013-02-02 12:33:00,35.0,8.0,-100.00,SW,229,3.0,6.0,32,0.00,,,-99.99,,2013-02-02 17:33:00,
2013-02-02 12:42:00,35.0,8.0,-100.00,SW,229,3.0,6.0,32,0.00,,,-99.99,,2013-02-02 17:42:00,
2013-02-02 12:53:00,36.0,7.0,-100.00,WSW,240,6.0,9.0,29,0.00,,,-99.99,,2013-02-02 17:53:00,
2013-02-02 13:03:00,36.0,7.0,-100.00,WSW,240,6.0,9.0,29,0.00,,,-99.99,,2013-02-02 18:03:00,
2013-02-02 13:12:00,36.0,8.0,-100.00,SW,234,4.0,6.0,30,0.00,,,-99.99,,2013-02-02 18:12:00,
2013-02-02 13:22:00,36.0,8.0,-100.00,SW,234,4.0,6.0,30,0.00,,,-99.99,,2013-02-02 18:22:00,
2013-02-02 13:32:00,37.0,6.0,-100.00,WSW,247,6.0,11.0,27,0.00,,,-99.99,,2013-02-02 18:32:00,
2013-02-02 13:42:00,37.0,6.0,-100.00,WSW,247,6.0,11.0,27,0.00,,,-99.99,,2013-02-02 18:42:00,
2013-02-02 13:52:00,37.0,7.0,-100.00,WSW,244,6.0,9.0,29,0.00,,,-99.99,,2013-02-02 18:52:00,
2013-02-02 14:02:00,37.0,7.0,-100.00,WSW,244,6.0,9.0,29,0.00,,,-99.99,,2013-02-02 19:02:00,
2013-02-02 14:12:00,37.0,6.0,-100.00,West,281,6.0,10.0,27,0.00,,,-99.99,,2013-02-02 19:12:00,
2013-02-02 14:22:00,37.0,6.0,-100.00,West,281,6.0,10.0,27,0.00,,,-99.99,,2013-02-02 19:22:00,
2013-02-02 14:32:00,38.0,7.0,-100.00,West,275,8.0,12.0,28,0.00,,,-99.99,,2013-02-02 19:32:00,
2013-02-02 14:42:00,38.0,7.0,-100.00,West,275,8.0,12.0,28,0.00,,,-99.99,,2013-02-02 19:42:00,
2013-02-02 14:52:00,38.0,6.0,-100.00,West,267,8.0,11.0,26,0.00,,,-99.99,,2013-02-02 19:52:00,
2013-02-02 15:02:00,38.0,6.0,-100.00,West,267,8.0,11.0,26,0.00,,,-99.99,,2013-02-02 20:02:00,
2013-02-02 15:12:00,38.0,8.0,-100.00,SW,215,3.0,6.0,29,0.00,,,-99.99,,2013-02-02 20:12:00,
2013-02-02 15:22:00,38.0,7.0,-100.00,WSW,256,5.0,8.0,27,0.00,,,-99.99,,2013-02-02 20:22:00,
2013-02-02 15:32:00,38.0,7.0,-100.00,WSW,256,5.0,8.0,27,0.00,,,-99.99,,2013-02-02 20:32:00,
2013-02-02 15:42:00,38.0,7.0,-100.00,WSW,256,5.0,8.0,27,0.00,,,-99.99,,2013-02-02 20:42:00,
2013-02-02 15:52:00,38.0,7.0,-100.00,WSW,257,4.0,6.0,26,0.00,,,-99.99,,2013-02-02 20:52:00,
2013-02-02 16:02:00,38.0,7.0,-100.00,WSW,257,4.0,6.0,26,0.00,,,-99.99,,2013-02-02 21:02:00,
2013-02-02 16:11:00,39.0,7.0,-100.00,SW,232,5.0,7.0,26,0.00,,,-99.99,,2013-02-02 21:11:00,
2013-02-02 16:22:00,39.0,7.0,-100.00,SW,232,5.0,7.0,26,0.00,,,-99.99,,2013-02-02 21:22:00,
2013-02-02 16:32:00,39.0,7.0,-100.00,WSW,237,3.0,5.0,26,0.00,,,-99.99,,2013-02-02 21:32:00,
2013-02-02 16:42:00,39.0,7.0,-100.00,WSW,237,3.0,5.0,26,0.00,,,-99.99,,2013-02-02 21:42:00,
2013-02-02 16:52:00,39.0,6.0,-100.00,WSW,256,3.0,4.0,25,0.00,,,-99.99,,2013-02-02 21:52:00,
2013-02-02 17:03:00,39.0,6.0,-100.00,WSW,256,3.0,4.0,25,0.00,,,-99.99,,2013-02-02 22:03:00,
2013-02-02 17:12:00,39.0,8.0,-100.00,WSW,241,2.0,3.0,27,0.00,,,-99.99,,2013-02-02 22:12:00,
2013-02-02 17:21:00,39.0,8.0,-100.00,WSW,241,2.0,3.0,27,0.00,,,-99.99,,2013-02-02 22:21:00,
2013-02-02 17:32:00,39.0,8.0,-100.00,WSW,246,3.0,5.0,28,0.00,,,-99.99,,2013-02-02 22:32:00,
2013-02-02 17:42:00,39.0,8.0,-100.00,SW,226,2.0,6.0,28,0.00,,,-99.99,,2013-02-02 22:42:00,
2013-02-02 17:52:00,39.0,8.0,-100.00,SW,226,2.0,6.0,28,0.00,,,-99.99,,2013-02-02 22:52:00,
2013-02-02 18:02:00,39.0,8.0,-100.00,SW,226,2.0,6.0,28,0.00,,,-99.99,,2013-02-02 23:02:00,
2013-02-02 18:11:00,38.0,9.0,-100.00,SSW,195,1.0,2.0,30,0.00,,,-99.99,,2013-02-02 23:11:00,
2013-02-02 18:21:00,38.0,9.0,-100.00,SSW,195,1.0,2.0,30,0.00,,,-99.99,,2013-02-02 23:21:00,
2013-02-02 18:32:00,39.0,10.0,-100.00,SW,215,2.0,5.0,30,0.00,,,-99.99,,2013-02-02 23:32:00,
2013-02-02 18:42:00,39.0,10.0,-100.00,SW,215,2.0,5.0,30,0.00,,,-99.99,,2013-02-02 23:42:00,
2013-02-02 18:52:00,38.0,10.0,-100.00,SSW,195,1.0,4.0,31,0.00,,,-99.99,,2013-02-02 23:52:00,
2013-02-02 19:02:00,38.0,10.0,-100.00,SSW,195,1.0,4.0,31,0.00,,,-99.99,,2013-02-03 00:02:00,
2013-02-02 19:11:00,37.0,11.0,-100.00,SE,138,0.0,1.0,33,0.00,,,-99.99,,2013-02-03 00:11:00,
2013-02-02 19:22:00,37.0,11.0,-100.00,SE,138,0.0,1.0,33,0.00,,,-99.99,,2013-02-03 00:22:00,
2013-02-02 19:32:00,37.0,12.0,-100.00,South,178,0.0,2.0,36,0.00,,,-99.99,,2013-02-03 00:32:00,
2013-02-02 19:42:00,37.0,12.0,-100.00,South,178,0.0,2.0,36,0.00,,,-99.99,,2013-02-03 00:42:00,
2013-02-02 19:52:00,36.0,12.0,-100.00,South,186,0.0,1.0,35,0.00,,,-99.99,,2013-02-03 00:52:00,
2013-02-02 20:02:00,37.0,13.0,-100.00,WSW,248,0.0,1.0,36,0.00,,,-99.99,,2013-02-03 01:02:00,
2013-02-02 20:11:00,37.0,13.0,-100.00,WSW,248,0.0,1.0,36,0.00,,,-99.99,,2013-02-03 01:11:00,
2013-02-02 20:21:00,37.0,13.0,-100.00,WSW,248,0.0,1.0,36,0.00,,,-99.99,,2013-02-03 01:21:00,
2013-02-02 20:32:00,37.0,12.0,-100.00,South,179,0.0,0.0,35,0.00,,,-99.99,,2013-02-03 01:32:00,
2013-02-02 20:42:00,37.0,12.0,-100.00,South,179,0.0,0.0,35,0.00,,,-99.99,,2013-02-03 01:42:00,
2013-02-02 20:52:00,36.0,11.0,-100.00,South,181,0.0,0.0,34,0.00,,,-99.99,,2013-02-03 01:52:00,
2013-02-02 21:01:00,36.0,15.0,-100.00,SE,131,0.0,1.0,41,0.00,,,-99.99,,2013-02-03 02:01:00,
2013-02-02 21:11:00,36.0,15.0,-100.00,SE,131,0.0,1.0,41,0.00,,,-99.99,,2013-02-03 02:11:00,
2013-02-02 21:21:00,36.0,15.0,-100.00,SE,131,0.0,1.0,41,0.00,,,-99.99,,2013-02-03 02:21:00,
2013-02-02 21:32:00,36.0,20.0,-100.00,WNW,287,0.0,1.0,52,0.00,,,-99.99,,2013-02-03 02:32:00,
2013-02-02 21:42:00,36.0,20.0,-100.00,WNW,287,0.0,1.0,52,0.00,,,-99.99,,2013-02-03 02:42:00,
2013-02-02 21:52:00,35.0,19.0,-100.00,WSW,240,0.0,1.0,52,0.00,,,-99.99,,2013-02-03 02:52:00,
2013-02-02 22:02:00,36.0,18.0,-100.00,West,265,0.0,0.0,48,0.00,,,-99.99,,2013-02-03 03:02:00,
2013-02-02 22:11:00,36.0,18.0,-100.00,West,265,0.0,0.0,48,0.00,,,-99.99,,2013-02-03 03:11:00,
2013-02-02 22:22:00,36.0,18.0,-100.00,West,265,0.0,0.0,48,0.00,,,-99.99,,2013-02-03 03:22:00,
2013-02-02 22:32:00,36.0,22.0,-100.00,NW,306,1.0,2.0,57,0.00,,,-99.99,,2013-02-03 03:32:00,
2013-02-02 22:42:00,36.0,22.0,-100.00,NW,306,1.0,2.0,57,0.00,,,-99.99,,2013-02-03 03:42:00,
2013-02-02 22:52:00,36.0,18.0,-100.00,ENE,61,0.0,1.0,47,0.00,,,0.00,,2013-02-03 03:52:00,
2013-02-02 23:01:00,36.0,18.0,-100.00,ENE,61,0.0,1.0,47,0.00,,,0.00,,2013-02-03 04:01:00,
2013-02-02 23:11:00,36.0,18.0,-100.00,WNW,296,1.0,2.0,47,0.00,,,0.00,,2013-02-03 04:11:00,
2013-02-02 23:22:00,36.0,18.0,-100.00,WNW,296,1.0,2.0,47,0.00,,,0.00,,2013-02-03 04:22:00,
2013-02-02 23:32:00,36.0,17.0,-100.00,West,268,2.0,3.0,44,0.00,,,0.00,,2013-02-03 04:32:00,
2013-02-02 23:42:00,36.0,17.0,-100.00,West,268,2.0,3.0,44,0.00,,,0.00,,2013-02-03 04:42:00,
2013-02-02 23:52:00,37.0,16.0,-100.00,WSW,248,1.0,2.0,42,0.00,,,0.00,,2013-02-03 04:52:00,